KLM25J EHAM-EKCH

Flight info

Callsign KLM25J
Flight time 0h 54m
Altitude 35000
Route ANDIK N873 HUNQI DCT DOSUR P729 TUDLO
Aircraft B738/M-SDE2E3FGHIRWXY/LB1

Departure

Time 2026-05-05 19:04
Airport Amsterdam Airport Schiphol (EHAM)

Arrival

Time 2026-05-05 19:58
Airport Copenhagen Kastrup Airport (EKCH)
Time Latitude Longitude Altitude Speed Heading
2026-05-05 18:07 52.30917 4.76713 -2 ft 0 kts 184°
2026-05-05 18:46 52.30934 4.76715 -2 ft 4 kts 183°
2026-05-05 18:46 52.30960 4.76718 -2 ft 4 kts 192°
2026-05-05 18:47 52.30981 4.76731 -2 ft 2 kts 217°
2026-05-05 18:47 52.30999 4.76755 -2 ft 3 kts 252°
2026-05-05 18:47 52.31005 4.76783 -2 ft 4 kts 219°
2026-05-05 18:47 52.31029 4.76811 -2 ft 4 kts 212°
2026-05-05 18:48 52.31045 4.76827 -2 ft 4 kts 212°
2026-05-05 18:48 52.31067 4.76852 -2 ft 4 kts 223°
2026-05-05 18:48 52.31082 4.76880 -2 ft 4 kts 242°
2026-05-05 18:48 52.31087 4.76920 -2 ft 4 kts 278°
2026-05-05 18:49 52.31085 4.76956 -2 ft 4 kts 272°
2026-05-05 18:49 52.31083 4.77000 -2 ft 4 kts 273°
2026-05-05 18:49 52.31082 4.77044 -2 ft 4 kts 273°
2026-05-05 18:49 52.31081 4.77054 -2 ft 1 kts 274°
2026-05-05 18:54 52.31082 4.77039 -2 ft 4 kts 274°
2026-05-05 18:54 52.31098 4.76964 -2 ft 10 kts 310°
2026-05-05 18:54 52.31171 4.76965 -2 ft 13 kts 32°
2026-05-05 18:55 52.31243 4.77041 -2 ft 12 kts 34°
2026-05-05 18:55 52.31313 4.77118 -2 ft 12 kts 33°
2026-05-05 18:55 52.31383 4.77188 -2 ft 12 kts 17°
2026-05-05 18:55 52.31462 4.77196 -2 ft 11 kts
2026-05-05 18:56 52.31539 4.77190 -2 ft 11 kts 331°
2026-05-05 18:56 52.31567 4.77062 -2 ft 15 kts 269°
2026-05-05 18:56 52.31561 4.76869 -2 ft 19 kts 266°
2026-05-05 18:56 52.31551 4.76625 -2 ft 23 kts 266°
2026-05-05 18:57 52.31544 4.76370 -2 ft 22 kts 268°
2026-05-05 18:57 52.31535 4.76122 -2 ft 22 kts 266°
2026-05-05 18:57 52.31527 4.75881 -2 ft 21 kts 267°
2026-05-05 18:57 52.31517 4.75647 -2 ft 20 kts 266°
2026-05-05 18:58 52.31512 4.75423 -2 ft 20 kts 269°
2026-05-05 18:58 52.31504 4.75202 -2 ft 19 kts 267°
2026-05-05 18:58 52.31495 4.74964 -2 ft 23 kts 267°
2026-05-05 18:58 52.31486 4.74675 -2 ft 27 kts 266°
2026-05-05 18:59 52.31476 4.74377 -2 ft 25 kts 267°
2026-05-05 18:59 52.31426 4.74162 -2 ft 14 kts 218°
2026-05-05 18:59 52.31336 4.74133 -2 ft 12 kts 183°
2026-05-05 18:59 52.31259 4.74126 -2 ft 11 kts 183°
2026-05-05 19:00 52.31184 4.74120 -2 ft 11 kts 183°
2026-05-05 19:00 52.31113 4.74112 -2 ft 10 kts 184°
2026-05-05 19:00 52.31043 4.74106 -2 ft 10 kts 183°
2026-05-05 19:00 52.30962 4.74098 -2 ft 15 kts 183°
2026-05-05 19:01 52.30832 4.74087 -2 ft 22 kts 184°
2026-05-05 19:01 52.30676 4.74073 -2 ft 22 kts 184°
2026-05-05 19:01 52.30560 4.74063 -2 ft 12 kts 183°
2026-05-05 19:01 52.30479 4.74056 -2 ft 11 kts 183°
2026-05-05 19:02 52.30413 4.73999 -2 ft 11 kts 242°
2026-05-05 19:02 52.30409 4.73869 -3 ft 12 kts 274°
2026-05-05 19:02 52.30448 4.73762 -4 ft 12 kts 352°
2026-05-05 19:02 52.30472 4.73763 -4 ft 0 kts
2026-05-05 19:03 52.30496 4.73765 -4 ft 13 kts
2026-05-05 19:03 52.30829 4.73795 -2 ft 82 kts
2026-05-05 19:03 52.31613 4.73869 -2 ft 141 kts
2026-05-05 19:03 52.32669 4.73953 413 ft 156 kts
2026-05-05 19:04 52.33717 4.74133 1364 ft 145 kts 16°
2026-05-05 19:04 52.34647 4.74735 2100 ft 149 kts 25°
2026-05-05 19:04 52.35695 4.75474 2359 ft 177 kts 24°
2026-05-05 19:04 52.36911 4.76322 2537 ft 201 kts 24°
2026-05-05 19:05 52.38181 4.77441 2911 ft 213 kts 41°
2026-05-05 19:05 52.39271 4.79269 3265 ft 235 kts 45°
2026-05-05 19:05 52.40432 4.81226 4056 ft 242 kts 45°
2026-05-05 19:05 52.41678 4.83110 4881 ft 248 kts 39°
2026-05-05 19:06 52.43006 4.84901 5697 ft 253 kts 38°
2026-05-05 19:06 52.44375 4.86720 6527 ft 258 kts 37°
2026-05-05 19:06 52.45791 4.88606 7160 ft 268 kts 38°
2026-05-05 19:06 52.47246 4.90557 7960 ft 271 kts 38°
2026-05-05 19:07 52.48717 4.92540 8726 ft 277 kts 38°
2026-05-05 19:07 52.50225 4.94582 9438 ft 285 kts 39°
2026-05-05 19:07 52.51771 4.96684 10164 ft 291 kts 38°
2026-05-05 19:07 52.53381 4.98875 10450 ft 313 kts 39°
2026-05-05 19:08 52.54438 5.00317 10565 ft 328 kts 39°
2026-05-05 19:08 52.55914 5.02334 10870 ft 340 kts 39°
2026-05-05 19:08 52.57758 5.04859 11473 ft 349 kts 39°
2026-05-05 19:08 52.59636 5.07435 12166 ft 354 kts 39°
2026-05-05 19:09 52.61541 5.10052 12892 ft 358 kts 39°
2026-05-05 19:09 52.63442 5.12665 13624 ft 361 kts 39°
2026-05-05 19:09 52.65379 5.15332 14283 ft 365 kts 39°
2026-05-05 19:09 52.67351 5.18050 14848 ft 372 kts 39°
2026-05-05 19:10 52.69351 5.20807 15487 ft 376 kts 39°
2026-05-05 19:10 52.71367 5.23591 16088 ft 381 kts 39°
2026-05-05 19:10 52.73301 5.26617 16715 ft 385 kts 46°
2026-05-05 19:10 52.75094 5.29945 17255 ft 392 kts 49°
2026-05-05 19:11 52.76864 5.33392 17953 ft 393 kts 50°
2026-05-05 19:11 52.78608 5.36827 18466 ft 399 kts 50°
2026-05-05 19:11 52.80425 5.40397 19003 ft 402 kts 50°
2026-05-05 19:11 52.82213 5.43887 19571 ft 405 kts 50°
2026-05-05 19:12 52.84053 5.47459 20066 ft 408 kts 50°
2026-05-05 19:12 52.85903 5.51034 20641 ft 411 kts 50°
2026-05-05 19:12 52.87774 5.54642 21095 ft 414 kts 50°
2026-05-05 19:12 52.89648 5.58254 21719 ft 416 kts 50°
2026-05-05 19:13 52.91556 5.61931 22130 ft 421 kts 50°
2026-05-05 19:13 52.93475 5.65634 22630 ft 425 kts 50°
2026-05-05 19:13 52.95409 5.69371 23067 ft 429 kts 50°
2026-05-05 19:13 52.97357 5.73142 23585 ft 431 kts 50°
2026-05-05 19:14 52.99313 5.76933 23955 ft 434 kts 50°
2026-05-05 19:14 53.01285 5.80761 24375 ft 436 kts 50°
2026-05-05 19:14 53.03258 5.84598 24741 ft 440 kts 50°
2026-05-05 19:14 53.05258 5.88494 25124 ft 442 kts 50°
2026-05-05 19:15 53.07233 5.92347 25482 ft 445 kts 50°
2026-05-05 19:15 53.09255 5.96297 25834 ft 448 kts 50°
2026-05-05 19:15 53.11281 6.00263 26157 ft 452 kts 50°
2026-05-05 19:15 53.13339 6.04298 26364 ft 459 kts 50°
2026-05-05 19:16 53.15414 6.08370 26696 ft 462 kts 50°
2026-05-05 19:16 53.17493 6.12459 27073 ft 463 kts 50°
2026-05-05 19:16 53.19584 6.16578 27408 ft 465 kts 50°
2026-05-05 19:16 53.21659 6.20670 27718 ft 468 kts 50°
2026-05-05 19:17 53.23771 6.24844 28014 ft 471 kts 51°
2026-05-05 19:17 53.25892 6.29043 28310 ft 474 kts 51°
2026-05-05 19:17 53.28028 6.33279 28605 ft 477 kts 51°
2026-05-05 19:17 53.30170 6.37535 28895 ft 480 kts 51°
2026-05-05 19:18 53.32323 6.41819 29180 ft 482 kts 51°
2026-05-05 19:18 53.34485 6.46128 29460 ft 485 kts 51°
2026-05-05 19:18 53.36657 6.50464 29730 ft 487 kts 51°
2026-05-05 19:18 53.38842 6.54834 29993 ft 489 kts 51°
2026-05-05 19:19 53.41032 6.59221 30249 ft 491 kts 51°
2026-05-05 19:19 53.43220 6.63614 30588 ft 490 kts 51°
2026-05-05 19:19 53.45396 6.67987 30955 ft 488 kts 51°
2026-05-05 19:19 53.47546 6.72318 31261 ft 488 kts 51°
2026-05-05 19:20 53.49725 6.76715 31489 ft 490 kts 51°
2026-05-05 19:20 53.51901 6.81114 31716 ft 492 kts 51°
2026-05-05 19:20 53.54091 6.85548 32023 ft 491 kts 51°
2026-05-05 19:20 53.56266 6.89962 32381 ft 490 kts 51°
2026-05-05 19:21 53.58444 6.94387 32634 ft 491 kts 51°
2026-05-05 19:21 53.60625 6.98827 32907 ft 491 kts 51°
2026-05-05 19:21 53.62800 7.03263 33216 ft 490 kts 51°
2026-05-05 19:21 53.64971 7.07697 33537 ft 490 kts 51°
2026-05-05 19:22 53.67135 7.12127 33818 ft 489 kts 51°
2026-05-05 19:22 53.69280 7.16524 34054 ft 489 kts 51°
2026-05-05 19:22 53.71437 7.20954 34331 ft 488 kts 51°
2026-05-05 19:22 53.73587 7.25379 34615 ft 487 kts 51°
2026-05-05 19:23 53.75730 7.29797 34868 ft 486 kts 51°
2026-05-05 19:23 53.77879 7.34235 34914 ft 490 kts 51°
2026-05-05 19:23 53.82208 7.43199 34922 ft 492 kts 51°
2026-05-05 19:24 53.86521 7.52161 34914 ft 488 kts 51°
2026-05-05 19:24 53.90791 7.61066 34918 ft 485 kts 51°
2026-05-05 19:25 53.95046 7.69971 34923 ft 484 kts 51°
2026-05-05 19:25 53.99242 7.78786 34925 ft 483 kts 51°
2026-05-05 19:26 54.03469 7.87696 34928 ft 485 kts 51°
2026-05-05 19:26 54.07704 7.96657 34922 ft 487 kts 51°
2026-05-05 19:27 54.11960 8.05694 34931 ft 490 kts 51°
2026-05-05 19:27 54.16241 8.14816 34931 ft 493 kts 51°
2026-05-05 19:28 54.19812 8.22454 34931 ft 495 kts 51°
2026-05-05 19:28 54.24117 8.31690 34929 ft 497 kts 51°
2026-05-05 19:29 54.28421 8.40960 34929 ft 499 kts 51°
2026-05-05 19:29 54.32733 8.50281 34924 ft 499 kts 51°
2026-05-05 19:30 54.37031 8.59609 34913 ft 498 kts 51°
2026-05-05 19:30 54.41315 8.68939 34920 ft 497 kts 51°
2026-05-05 19:31 54.45556 8.78212 34933 ft 496 kts 51°
2026-05-05 19:31 54.49805 8.87537 34915 ft 495 kts 51°
2026-05-05 19:32 54.54046 8.96878 34910 ft 494 kts 51°
2026-05-05 19:32 54.58274 9.06227 34916 ft 494 kts 51°
2026-05-05 19:33 54.62489 9.15582 34910 ft 494 kts 51°
2026-05-05 19:33 54.66699 9.24963 34459 ft 493 kts 51°
2026-05-05 19:34 54.68793 9.29642 33885 ft 493 kts 50°
2026-05-05 19:34 54.70900 9.34358 33046 ft 497 kts 51°
2026-05-05 19:34 54.73012 9.39092 32355 ft 498 kts 51°
2026-05-05 19:35 54.77211 9.48541 31398 ft 491 kts 51°
2026-05-05 19:35 54.79283 9.53217 30951 ft 487 kts 51°
2026-05-05 19:35 54.81341 9.57869 30508 ft 483 kts 51°
2026-05-05 19:35 54.83374 9.62473 30083 ft 479 kts 51°
2026-05-05 19:36 54.85390 9.67047 29615 ft 475 kts 51°
2026-05-05 19:36 54.87360 9.71523 29161 ft 471 kts 51°
2026-05-05 19:36 54.89362 9.76083 28720 ft 466 kts 50°
2026-05-05 19:36 54.91298 9.80498 28260 ft 463 kts 50°
2026-05-05 19:37 54.93259 9.84980 27809 ft 458 kts 50°
2026-05-05 19:37 54.95150 9.89309 27400 ft 454 kts 50°
2026-05-05 19:37 54.97055 9.93678 26962 ft 450 kts 50°
2026-05-05 19:37 54.98939 9.98005 26531 ft 447 kts 50°
2026-05-05 19:38 55.00809 10.02309 26106 ft 444 kts 50°
2026-05-05 19:38 55.02665 10.06586 25690 ft 440 kts 50°
2026-05-05 19:38 55.04501 10.10825 25273 ft 437 kts 50°
2026-05-05 19:38 55.06322 10.15039 24866 ft 434 kts 50°
2026-05-05 19:39 55.08133 10.19235 24457 ft 431 kts 50°
2026-05-05 19:39 55.09932 10.23409 24070 ft 429 kts 50°
2026-05-05 19:39 55.11722 10.27570 23636 ft 427 kts 50°
2026-05-05 19:39 55.13501 10.31714 23182 ft 425 kts 50°
2026-05-05 19:40 55.15273 10.35847 22723 ft 422 kts 50°
2026-05-05 19:40 55.17030 10.39954 22290 ft 419 kts 50°
2026-05-05 19:40 55.18764 10.44014 21891 ft 415 kts 50°
2026-05-05 19:40 55.20483 10.48043 21480 ft 412 kts 51°
2026-05-05 19:41 55.22190 10.52051 21088 ft 408 kts 51°
2026-05-05 19:41 55.23885 10.56034 20692 ft 405 kts 51°
2026-05-05 19:41 55.25542 10.59938 20301 ft 402 kts 51°
2026-05-05 19:41 55.27121 10.63968 19912 ft 401 kts 58°
2026-05-05 19:42 55.28300 10.68395 19520 ft 400 kts 70°
2026-05-05 19:42 55.29113 10.73060 19146 ft 397 kts 73°
2026-05-05 19:42 55.29866 10.77705 18751 ft 395 kts 74°
2026-05-05 19:42 55.30618 10.82333 18392 ft 393 kts 73°
2026-05-05 19:43 55.31385 10.86935 17944 ft 392 kts 73°
2026-05-05 19:43 55.32157 10.91503 17521 ft 389 kts 73°
2026-05-05 19:43 55.32929 10.96053 17116 ft 386 kts 73°
2026-05-05 19:43 55.33604 11.00602 16764 ft 382 kts 79°
2026-05-05 19:44 55.34044 11.05142 16331 ft 374 kts 82°
2026-05-05 19:44 55.34402 11.09659 15644 ft 373 kts 83°
2026-05-05 19:44 55.34731 11.14157 14998 ft 370 kts 83°
2026-05-05 19:44 55.35050 11.18567 14430 ft 366 kts 83°
2026-05-05 19:45 55.35371 11.22970 13885 ft 361 kts 83°
2026-05-05 19:45 55.35694 11.27326 13285 ft 357 kts 83°
2026-05-05 19:45 55.36016 11.31633 12694 ft 353 kts 82°
2026-05-05 19:45 55.36336 11.35888 12134 ft 348 kts 82°
2026-05-05 19:46 55.36651 11.40068 11569 ft 343 kts 82°
2026-05-05 19:46 55.36962 11.44201 11012 ft 339 kts 82°
2026-05-05 19:46 55.37268 11.48289 10467 ft 335 kts 82°
2026-05-05 19:46 55.37569 11.52328 10048 ft 327 kts 82°
2026-05-05 19:47 55.37856 11.56189 9818 ft 312 kts 82°
2026-05-05 19:47 55.38138 11.59990 9361 ft 314 kts 82°
2026-05-05 19:47 55.38417 11.63777 9022 ft 312 kts 82°
2026-05-05 19:47 55.38694 11.67560 8675 ft 310 kts 82°
2026-05-05 19:48 55.38964 11.71245 8357 ft 307 kts 82°
2026-05-05 19:48 55.39233 11.74953 8045 ft 304 kts 82°
2026-05-05 19:48 55.39497 11.78591 7948 ft 294 kts 82°
2026-05-05 19:48 55.39749 11.82087 7926 ft 281 kts 82°
2026-05-05 19:49 55.39989 11.85429 7921 ft 269 kts 82°
2026-05-05 19:49 55.40141 11.87556 7912 ft 260 kts 82°
2026-05-05 19:49 55.40436 11.91692 7924 ft 252 kts 82°
2026-05-05 19:49 55.40654 11.94748 7936 ft 252 kts 82°
2026-05-05 19:50 55.40870 11.97796 7838 ft 247 kts 82°
2026-05-05 19:50 55.41082 12.00802 7420 ft 248 kts 82°
2026-05-05 19:50 55.41294 12.03811 7031 ft 247 kts 82°
2026-05-05 19:50 55.41504 12.06805 6722 ft 246 kts 82°
2026-05-05 19:51 55.41710 12.09763 6443 ft 247 kts 82°
2026-05-05 19:51 55.41920 12.12772 6148 ft 247 kts 82°
2026-05-05 19:51 55.42126 12.15750 5915 ft 241 kts 82°
2026-05-05 19:51 55.42327 12.18659 5595 ft 237 kts 82°
2026-05-05 19:52 55.42523 12.21507 5278 ft 233 kts 82°
2026-05-05 19:52 55.42717 12.24315 4963 ft 229 kts 82°
2026-05-05 19:52 55.42905 12.27073 4680 ft 224 kts 82°
2026-05-05 19:52 55.43088 12.29767 4427 ft 218 kts 82°
2026-05-05 19:53 55.43264 12.32374 4199 ft 211 kts 81°
2026-05-05 19:53 55.43438 12.34851 4001 ft 201 kts 78°
2026-05-05 19:53 55.44039 12.36943 3731 ft 191 kts 39°
2026-05-05 19:53 55.45096 12.38282 3478 ft 185 kts 40°
2026-05-05 19:54 55.45994 12.39870 3258 ft 179 kts 42°
2026-05-05 19:54 55.46914 12.41289 3069 ft 171 kts 40°
2026-05-05 19:54 55.47824 12.42670 3014 ft 175 kts 40°
2026-05-05 19:54 55.48746 12.44091 2815 ft 176 kts 40°
2026-05-05 19:55 55.49652 12.45496 2576 ft 171 kts 40°
2026-05-05 19:55 55.50532 12.46865 2342 ft 166 kts 40°
2026-05-05 19:55 55.51394 12.48204 2122 ft 162 kts 40°
2026-05-05 19:55 55.52201 12.49459 1903 ft 152 kts 40°
2026-05-05 19:56 55.52973 12.50658 1708 ft 147 kts 40°
2026-05-05 19:56 55.53730 12.51832 1508 ft 143 kts 40°
2026-05-05 19:56 55.54472 12.52985 1307 ft 142 kts 40°
2026-05-05 19:56 55.55223 12.54151 1118 ft 145 kts 40°
2026-05-05 19:57 55.55978 12.55329 917 ft 144 kts 40°
2026-05-05 19:57 55.56478 12.56105 782 ft 146 kts 39°
2026-05-05 19:57 55.57513 12.57716 503 ft 148 kts 39°
2026-05-05 19:57 55.58296 12.58922 307 ft 150 kts 38°
2026-05-05 19:58 55.59078 12.60132 99 ft 148 kts 39°
2026-05-05 19:58 55.59818 12.61271 22 ft 129 kts 41°
2026-05-05 19:58 55.60384 12.62148 22 ft 87 kts 41°
2026-05-05 19:58 55.60720 12.62668 29 ft 32 kts 41°
2026-05-05 19:59 55.60858 12.62814 24 ft 22 kts 18°
2026-05-05 19:59 55.61001 12.62878 23 ft 17 kts 12°
2026-05-05 19:59 55.61113 12.62920 23 ft 16 kts 15°
2026-05-05 19:59 55.61201 12.63032 23 ft 16 kts 41°
2026-05-05 20:00 55.61281 12.63155 27 ft 15 kts 41°
2026-05-05 20:00 55.61360 12.63280 23 ft 16 kts 42°
2026-05-05 20:00 55.61452 12.63420 24 ft 18 kts 41°
2026-05-05 20:00 55.61548 12.63567 23 ft 18 kts 39°
2026-05-05 20:01 55.61639 12.63711 23 ft 17 kts 43°
2026-05-05 20:01 55.61729 12.63851 23 ft 17 kts 41°
2026-05-05 20:01 55.61816 12.63984 24 ft 16 kts 41°
2026-05-05 20:01 55.61906 12.64099 23 ft 16 kts 27°
2026-05-05 20:02 55.62002 12.64181 23 ft 15 kts 24°
2026-05-05 20:02 55.62095 12.64257 23 ft 14 kts 25°
2026-05-05 20:02 55.62194 12.64339 21 ft 18 kts 26°
2026-05-05 20:02 55.62286 12.64268 20 ft 18 kts 304°
2026-05-05 20:03 55.62362 12.64069 20 ft 21 kts 303°
2026-05-05 20:03 55.62452 12.63849 21 ft 22 kts 317°
2026-05-05 20:03 55.62571 12.63771 23 ft 15 kts
2026-05-05 20:03 55.62597 12.63777 23 ft 0 kts 12°
2026-05-05 20:04 55.62598 12.63777 23 ft 1 kts 12°
2026-05-05 20:04 55.62622 12.63790 23 ft 7 kts 20°
2026-05-05 20:04 55.62679 12.63845 25 ft 12 kts 32°
2026-05-05 20:05 55.62759 12.63936 24 ft 13 kts 32°
2026-05-05 20:05 55.62833 12.63906 23 ft 12 kts 301°
2026-05-05 20:05 55.62864 12.63859 23 ft 5 kts 355°
2026-05-05 20:05 55.62893 12.63869 23 ft 2 kts 12°
2026-05-05 20:06 55.62896 12.63870 23 ft 0 kts 12°